Ellsworth AFB, SD

8:35 AM MST on November 12, 2019 (GMT -0700)
Ellsworth Air Force Base

Weather History for KRCA - October, 2019

Change the Weather History Date:

Sunday, October 13, 2019

  Actual Average Record
Temperature  
Mean Temperature 38 °F -  
Max Temperature 55 °F 60 °F 77 °F (1996)
Min Temperature 21 °F 36 °F 21 °F (2019)
Degree Days  
Heating Degree Days 27    
Moisture  
Dew Point 24 °F    
Average Humidity 54    
Maximum Humidity 89    
Minimum Humidity 31    
Precipitation  
Precipitation 0.00 in - - ()
Sea Level Pressure  
Sea Level Pressure 29.97 in    
Wind  
Wind Speed 6 mph (SSW)    
Max Wind Speed 13 mph    
Max Gust Speed -    
Visibility 6 miles    
Events      
Averages and records for this station are not official NWS values.
T = Trace of Precipitation, MM = Missing Value Source: NWS Daily Summary

Daily Weather History Graph

Daily Weather History Graph

Search for Another Location

Airport or City:

Astronomy

Oct. 13, 2019 Rise Set
Actual Time 7:04 AM MDT 6:12 PM MDT
Civil Twilight 6:35 AM MDT 6:41 PM MDT
Nautical Twilight 6:01 AM MDT 7:14 PM MDT
Astronomical Twilight 5:28 AM MDT 7:48 PM MDT
Moon 6:37 PM MDT (10/13) 6:37 AM MDT (10/13)
Length of Visible Light 12h 05m
Length of Day
11h 07m
Full, 100% of the Moon is Illuminated
Oct 13
Full
Oct 13
Full
Oct 21
Last Quarter
Oct 27
New
Nov 4
First Quarter

Hourly Weather History & Observations

Time (MDT) Temp. Windchill Dew Point Humidity Pressure Visibility Wind Dir Wind Speed Gust Speed Precip Events Conditions
12:56 AM 34.3 °F 25.5 °F 21.0 °F 58% 29.97 in 10.0 mi NNW 12.7 mph - N/A   Clear
1:56 AM 33.8 °F 25.8 °F 21.4 °F 60% 29.97 in 10.0 mi NW 10.4 mph - N/A   Clear
2:56 AM 23.2 °F 14.1 °F 20.5 °F 89% 29.98 in 10.0 mi West 8.1 mph - N/A   Clear
3:56 AM 22.3 °F 13.9 °F 18.0 °F 83% 29.97 in 10.0 mi West 6.9 mph - N/A   Clear
4:56 AM 21.4 °F 13.8 °F 16.2 °F 80% 29.98 in 10.0 mi West 5.8 mph - N/A   Clear
5:56 AM 26.8 °F - 13.1 °F 56% 29.98 in 10.0 mi Calm Calm - N/A   Clear
7:56 AM 26.2 °F - 17.8 °F 70% 30.03 in 10.0 mi Calm Calm - N/A   Clear
8:56 AM 32.4 °F 26.9 °F 21.6 °F 64% 30.06 in 10.0 mi WSW 5.8 mph - N/A   Clear
9:56 AM 39.7 °F 35.6 °F 24.1 °F 54% 30.04 in 10.0 mi South 5.8 mph - N/A   Clear
10:56 AM 44.1 °F 42.5 °F 23.0 °F 43% 30.02 in 10.0 mi South 3.5 mph - N/A   Clear
11:56 AM 48.4 °F - 23.9 °F 38% 30.02 in 10.0 mi Calm Calm - N/A   Clear
12:56 PM 51.1 °F - 23.0 °F 33% 29.99 in 10.0 mi North 3.5 mph - N/A   Clear
1:56 PM 52.5 °F - 24.3 °F 33% 29.97 in 10.0 mi North 4.6 mph - N/A   Clear
2:56 PM 54.5 °F - 25.2 °F 32% 29.97 in 10.0 mi Calm Calm - N/A   Clear
3:56 PM 54.7 °F - 24.6 °F 31% 29.97 in 6.0 mi Calm Calm - N/A   Haze
4:16 PM 55.4 °F - 24.8 °F 31% 29.96 in 2.5 mi Calm Calm - N/A   Haze
4:26 PM 55.4 °F - 24.8 °F 31% 29.97 in 3.0 mi Calm Calm - N/A   Haze
4:56 PM 54.9 °F - 27.0 °F 34% 29.96 in 7.0 mi ESE 5.8 mph - N/A   Clear
5:56 PM 51.1 °F - 27.7 °F 40% 29.97 in 10.0 mi ESE 4.6 mph - N/A   Clear
6:56 PM 46.4 °F 45.2 °F 26.8 °F 46% 29.98 in 10.0 mi ESE 3.5 mph - N/A   Clear
7:56 PM 42.4 °F 39.6 °F 26.6 °F 54% 30.00 in 8.0 mi SSW 4.6 mph - N/A   Clear
8:56 PM 41.5 °F 38.6 °F 25.7 °F 53% 29.97 in 4.0 mi South 4.6 mph - N/A   Haze
9:01 PM 41.0 °F 37.1 °F 26.6 °F 57% 29.97 in 2.8 mi South 5.8 mph - N/A   Haze
9:11 PM 41.0 °F 38.0 °F 26.6 °F 57% 29.97 in 2.0 mi South 4.6 mph - N/A   Haze
9:16 PM 41.0 °F 39.0 °F 26.6 °F 57% 29.96 in 2.2 mi South 3.5 mph - N/A   Haze
9:21 PM 41.0 °F 38.0 °F 26.6 °F 57% 29.96 in 4.0 mi South 4.6 mph - N/A   Haze
9:31 PM 39.2 °F 35.0 °F 26.6 °F 61% 29.97 in 2.0 mi South 5.8 mph - N/A   Haze
9:36 PM 39.2 °F 35.9 °F 26.6 °F 61% 29.96 in 1.8 mi South 4.6 mph - N/A   Haze
9:41 PM 39.2 °F 35.9 °F 26.6 °F 61% 29.96 in 2.0 mi South 4.6 mph - N/A   Haze
9:46 PM 39.2 °F 35.0 °F 26.6 °F 61% 29.96 in 2.2 mi South 5.8 mph - N/A   Haze
9:51 PM 39.2 °F 35.0 °F 26.6 °F 61% 29.96 in 1.9 mi South 5.8 mph - N/A   Haze
9:56 PM 38.5 °F 32.7 °F 26.2 °F 61% 29.96 in 1.6 mi South 8.1 mph - N/A   Haze
10:06 PM 39.2 °F 33.6 °F 26.6 °F 61% 29.95 in 1.8 mi South 8.1 mph - N/A   Haze
10:11 PM 39.2 °F 35.0 °F 26.6 °F 61% 29.96 in 1.9 mi South 5.8 mph - N/A   Haze
10:16 PM 39.2 °F 35.9 °F 26.6 °F 61% 29.96 in 2.2 mi South 4.6 mph - N/A   Haze
10:26 PM 39.2 °F 35.0 °F 26.6 °F 61% 29.95 in 2.2 mi South 5.8 mph - N/A   Haze
10:36 PM 41.0 °F 34.7 °F 26.6 °F 57% 29.95 in 5.0 mi South 10.4 mph - N/A   Haze
10:56 PM 41.7 °F 36.1 °F 25.3 °F 52% 29.94 in 10.0 mi South 9.2 mph - N/A   Clear
11:56 PM 41.0 °F 34.7 °F 23.7 °F 50% 29.91 in 10.0 mi SSE 10.4 mph - N/A   Clear